TimeCST,TemperatureF,Dew PointF,Humidity,Sea Level PressureIn,VisibilityMPH,Wind Direction,Wind SpeedMPH,Gust SpeedMPH,PrecipitationIn,Events,Conditions,WindDirDegrees,DateUTC
12:53 AM,66.0,61.0,84,30.07,-9999.0,Calm,Calm,-,0.07,,Unknown,0,2013-01-09 06:53:00
1:53 AM,66.9,61.0,81,30.04,-9999.0,Variable,5.8,-,0.02,,Unknown,0,2013-01-09 07:53:00
2:53 AM,66.0,61.0,84,30.04,-9999.0,Variable,3.5,-,N/A,,Unknown,0,2013-01-09 08:53:00
3:53 AM,69.1,61.0,75,30.04,-9999.0,Variable,3.5,-,N/A,,Unknown,0,2013-01-09 09:53:00
4:53 AM,68.0,62.1,81,30.04,-9999.0,Variable,4.6,-,N/A,,Unknown,0,2013-01-09 10:53:00
5:53 AM,70.0,63.0,78,30.06,-9999.0,East,4.6,-,N/A,,Unknown,80,2013-01-09 11:53:00
6:53 AM,73.0,64.0,73,30.07,-9999.0,North,3.5,-,0.17,,Unknown,10,2013-01-09 12:53:00
7:53 AM,70.0,64.0,81,30.09,-9999.0,Variable,3.5,-,0.30,,Unknown,0,2013-01-09 13:53:00
8:53 AM,81.0,66.9,62,30.11,-9999.0,ESE,9.2,-,N/A,,Unknown,110,2013-01-09 14:53:00
9:53 AM,79.0,66.9,66,30.11,-9999.0,ESE,6.9,-,N/A,,Unknown,110,2013-01-09 15:53:00
10:53 AM,82.0,68.0,62,30.09,-9999.0,ESE,11.5,18.4,N/A,,Unknown,120,2013-01-09 16:53:00
11:53 AM,82.9,69.1,63,30.06,-9999.0,ESE,9.2,18.4,N/A,,Unknown,120,2013-01-09 17:53:00
12:53 PM,84.9,69.1,59,30.05,-9999.0,ESE,11.5,17.3,N/A,,Unknown,120,2013-01-09 18:53:00
1:53 PM,84.9,69.1,59,30.03,-9999.0,ESE,10.4,20.7,N/A,,Unknown,120,2013-01-09 19:53:00
2:53 PM,84.0,69.1,61,30.02,-9999.0,ESE,11.5,20.7,N/A,,Unknown,110,2013-01-09 20:53:00
3:53 PM,84.0,69.1,61,30.02,-9999.0,ESE,6.9,-,N/A,,Unknown,110,2013-01-09 21:53:00
4:53 PM,82.9,69.1,63,30.04,-9999.0,ESE,10.4,18.4,N/A,,Unknown,120,2013-01-09 22:53:00
5:53 PM,82.9,69.1,63,30.07,-9999.0,ESE,9.2,-,N/A,,Unknown,120,2013-01-09 23:53:00
6:53 PM,82.0,69.1,65,30.07,-9999.0,ESE,9.2,-,N/A,,Unknown,120,2013-01-10 00:53:00
7:53 PM,82.0,69.1,65,30.08,-9999.0,ESE,10.4,17.3,N/A,,Unknown,110,2013-01-10 01:53:00
8:53 PM,81.0,69.1,67,30.09,-9999.0,ESE,9.2,-,N/A,,Unknown,120,2013-01-10 02:53:00
9:53 PM,81.0,69.1,67,30.09,-9999.0,ESE,12.7,21.9,N/A,,Unknown,120,2013-01-10 03:53:00
10:53 PM,81.0,69.1,67,30.08,-9999.0,ESE,10.4,-,N/A,,Unknown,120,2013-01-10 04:53:00
11:53 PM,80.1,68.0,67,30.09,-9999.0,ESE,9.2,-,N/A,,Unknown,120,2013-01-10 05:53:00